Location: Chisholm
(54.9102°N, 114.1701°W)
Time: 12:03:46
(UTC+00:00)

N. Korean satellite - Pass Details

Date: 07 December 2021
Orbit: 447 x 491 km, 97.3° (Epoch: 25 January)

Event Time Altitude Azimuth Distance (km) Brightness Sun altitude
Rises 14:20:49 0° 2° (N) 2,474 9.9 -11.2°
Maximum altitude 14:25:38 17° 300° (WNW) 1,205 7.9 -10.6°
Drops below altitude 10° 14:27:56 10° 257° (WSW) 1,580 8.7 -10.3°
Sets 14:30:25 0° 237° (WSW) 2,448 9.8 -10.0°
